TimeCDT,TemperatureF,Dew PointF,Humidity,Sea Level PressureIn,VisibilityMPH,Wind Direction,Wind SpeedMPH,Gust SpeedMPH,PrecipitationIn,Events,Conditions,WindDirDegrees,DateUTC
12:53 AM,62.1,46.0,56,29.92,10.0,NNE,11.5,19.6,N/A,,Clear,20,2012-09-17 05:53:00
1:53 AM,60.1,46.0,60,29.93,10.0,NNW,6.9,-,N/A,,Scattered Clouds,340,2012-09-17 06:53:00
2:53 AM,59.0,46.9,64,29.94,10.0,North,10.4,-,0.00,Rain,Light Rain,10,2012-09-17 07:53:00
3:53 AM,54.0,51.1,90,29.93,6.0,North,3.5,-,N/A,Rain,Light Rain,10,2012-09-17 08:53:00
4:47 AM,53.6,51.8,94,29.95,5.0,North,8.1,-,N/A,Rain,Rain,360,2012-09-17 09:47:00
4:53 AM,54.0,51.1,90,29.94,4.0,North,6.9,-,N/A,Rain,Light Rain,10,2012-09-17 09:53:00
5:21 AM,53.6,51.8,94,29.96,10.0,NNW,5.8,-,N/A,Rain,Light Rain,330,2012-09-17 10:21:00
5:44 AM,53.6,51.8,94,29.97,10.0,NNW,4.6,-,N/A,Rain,Light Rain,340,2012-09-17 10:44:00
5:53 AM,53.1,50.0,89,29.97,10.0,NNW,6.9,-,N/A,Rain,Light Rain,330,2012-09-17 10:53:00
7:53 AM,52.0,46.9,83,29.97,10.0,NNW,10.4,-,N/A,,Mostly Cloudy,330,2012-09-17 12:53:00
8:53 AM,52.0,45.0,77,29.97,10.0,NNW,12.7,-,N/A,,Overcast,340,2012-09-17 13:53:00
9:53 AM,52.0,43.0,71,29.99,10.0,NNW,10.4,-,N/A,,Overcast,330,2012-09-17 14:53:00
10:53 AM,54.0,44.1,69,29.99,10.0,North,11.5,18.4,N/A,,Clear,360,2012-09-17 15:53:00
11:53 AM,55.9,44.1,64,30.00,10.0,North,11.5,-,N/A,,Clear,350,2012-09-17 16:53:00
12:53 PM,59.0,43.0,55,29.99,10.0,North,9.2,-,N/A,,Scattered Clouds,10,2012-09-17 17:53:00
1:53 PM,62.1,41.0,46,29.97,10.0,NW,11.5,-,N/A,,Scattered Clouds,320,2012-09-17 18:53:00
2:53 PM,61.0,37.9,42,29.96,10.0,NW,11.5,-,N/A,,Partly Cloudy,320,2012-09-17 19:53:00
3:53 PM,60.1,35.1,39,29.96,10.0,NNW,10.4,-,N/A,,Mostly Cloudy,340,2012-09-17 20:53:00
4:53 PM,62.1,35.1,37,29.94,10.0,North,16.1,19.6,N/A,,Overcast,350,2012-09-17 21:53:00
5:53 PM,60.1,34.0,38,29.96,10.0,NNW,12.7,-,N/A,,Partly Cloudy,330,2012-09-17 22:53:00
6:53 PM,57.9,35.1,42,29.96,10.0,North,6.9,-,N/A,,Partly Cloudy,350,2012-09-17 23:53:00
7:53 PM,55.9,37.0,49,29.98,10.0,North,6.9,-,N/A,,Overcast,350,2012-09-18 00:53:00
8:53 PM,54.0,37.0,53,29.99,10.0,North,4.6,-,N/A,,Mostly Cloudy,350,2012-09-18 01:53:00
9:53 PM,54.0,37.9,55,29.99,10.0,NNW,4.6,-,N/A,,Overcast,330,2012-09-18 02:53:00
10:53 PM,51.1,37.0,59,30.00,10.0,North,10.4,18.4,0.00,,Mostly Cloudy,350,2012-09-18 03:53:00
11:53 PM,50.0,37.0,61,30.00,10.0,NNW,5.8,-,N/A,,Clear,340,2012-09-18 04:53:00